Pardubice, Czech Republic

8:41 AM CEST on May 24, 2018 (GMT +0200)
Pardubice

Weather History for LKPD - September, 2013

Change the Weather History Date:

Thursday, September 5, 2013

  Actual Average Record
Temperature  
Mean Temperature 65 °F -  
Max Temperature 77 °F - - ()
Min Temperature 53 °F - - ()
Growing Degree Days 15 (Base 50)    
Moisture  
Dew Point 54 °F    
Average Humidity 80    
Maximum Humidity 100    
Minimum Humidity 41    
Precipitation  
Precipitation 0.00 in - - ()
Sea Level Pressure  
Sea Level Pressure 30.14 in    
Wind  
Wind Speed 1 mph ()    
Max Wind Speed 10 mph    
Max Gust Speed 13 mph    
Visibility 2.3 miles    
Events Fog    
T = Trace of Precipitation, MM = Missing Value Source: Averaged Metar Reports

Daily Weather History Graph

Daily Weather History Graph

Search for Another Location

Airport or City:

Astronomy

Sep. 05, 2013 Rise Set
Actual Time 6:18 AM CEST 7:32 PM CEST
Civil Twilight 5:44 AM CEST 8:05 PM CEST
Nautical Twilight 5:04 AM CEST 8:45 PM CEST
Astronomical Twilight 4:20 AM CEST 9:29 PM CEST
Moon 6:16 AM CEST (9/5) 7:07 PM CEST (9/5)
Length of Visible Light 14h 20m
Length of Day
13h 14m
Waning Crescent, 0% of the Moon is Illuminated
Sep 5
Waning Crescent
Sep 5
New
Sep 12
First Quarter
Sep 19
Full
Sep 27
Last Quarter

Hourly Weather History & Observations

Time (CEST) Temp. Dew Point Humidity Pressure Visibility Wind Dir Wind Speed Gust Speed Precip Events Conditions
12:00 AM 57.2 °F 55.4 °F 94% 30.21 in - Variable 1.2 mph - N/A   Clear
1:00 AM 55.4 °F 53.6 °F 94% 30.21 in - ESE 1.2 mph - N/A   Clear
1:14 AM 55.4 °F 53.6 °F 94% 30.21 in 1.2 mi Calm Calm - N/A Fog Fog
1:40 AM 53.6 °F 51.8 °F 94% 30.21 in 0.3 mi Calm Calm - N/A Fog Fog
2:00 AM 53.6 °F 53.6 °F 100% 30.21 in 0.1 mi Calm Calm - N/A Fog Fog
3:00 AM 53.6 °F 51.8 °F 94% 30.18 in 0.1 mi Calm Calm - N/A Fog Fog
4:00 AM 53.6 °F 51.8 °F 94% 30.18 in 0.3 mi Calm Calm - N/A Fog Fog
4:46 AM 53.6 °F 53.6 °F 100% 30.18 in 3.1 mi Calm Calm - N/A   Mist
5:00 AM 53.6 °F 53.6 °F 100% 30.18 in 3.1 mi Variable 1.2 mph - N/A   Mist
5:46 AM 53.6 °F 53.6 °F 100% 30.15 in 2.2 mi Calm Calm - N/A   Mist
5:50 AM 53.6 °F 53.6 °F 100% 30.15 in 0.3 mi Calm Calm - N/A Fog Fog
6:00 AM 53.6 °F 53.6 °F 100% 30.15 in 0.2 mi Calm Calm - N/A Fog Fog
7:00 AM 53.6 °F 53.6 °F 100% 30.15 in 0.2 mi SW 1.2 mph - N/A Fog Fog
8:00 AM 55.4 °F 55.4 °F 100% 30.15 in 0.3 mi Calm Calm - N/A Fog Fog
8:08 AM 55.4 °F 55.4 °F 100% 30.15 in 0.5 mi Calm Calm - N/A Fog Fog
8:13 AM 55.4 °F 55.4 °F 100% 30.15 in 1.2 mi Variable 1.2 mph - N/A   Mostly Cloudy
8:31 AM 57.2 °F 55.4 °F 94% 30.15 in 1.9 mi Calm Calm - N/A   Mist
8:36 AM 57.2 °F 55.4 °F 94% 30.15 in 3.1 mi Calm Calm - N/A   Mist
9:00 AM 60.8 °F 55.4 °F 82% 30.15 in 3.7 mi Calm Calm - N/A   Mostly Cloudy
10:00 AM 64.4 °F 57.2 °F 77% 30.15 in 5.0 mi Calm Calm - N/A   Scattered Clouds
11:00 AM 69.8 °F 59.0 °F 68% 30.15 in 6.2 mi Variable 2.3 mph - N/A   Partly Cloudy
12:00 PM 71.6 °F 55.4 °F 57% 30.12 in 6.2 mi Variable 2.3 mph - N/A   Mostly Cloudy
1:00 PM 71.6 °F 53.6 °F 53% 30.12 in 6.2 mi Variable 3.5 mph - N/A   Scattered Clouds
2:00 PM 73.4 °F 53.6 °F 50% 30.12 in 6.2 mi Variable 1.2 mph - N/A   Scattered Clouds
3:00 PM 75.2 °F 51.8 °F 44% 30.09 in - Variable 3.5 mph - N/A   Clear
4:00 PM 75.2 °F 50.0 °F 41% 30.09 in - Variable 3.5 mph - N/A   Clear
5:00 PM 77.0 °F 51.8 °F 41% 30.06 in - Variable 3.5 mph 12.7 mph N/A   Clear
6:00 PM 75.2 °F 51.8 °F 44% 30.06 in - East 4.6 mph - N/A   Clear
7:00 PM 73.4 °F 51.8 °F 47% 30.06 in - East 3.5 mph - N/A   Clear
8:00 PM 68.0 °F 53.6 °F 60% 30.06 in - ENE 3.5 mph - N/A   Clear
9:00 PM 66.2 °F 55.4 °F 68% 30.06 in - East 10.4 mph - N/A   Clear
10:00 PM 64.4 °F 55.4 °F 73% 30.06 in - ESE 8.1 mph - N/A   Clear
11:00 PM 60.8 °F 53.6 °F 77% 30.06 in - ESE 4.6 mph - N/A   Clear